Regional Weather Roundup
Issued by NWS

Home | Current Version | Previous Version | Text Only | Print | Product List | Glossary Off
Versions: 1 2 3 4 5 6 7 8 9 10 11 12 13 14 15 16 17 18 19 20 21 22 23 24 25 26 27 28 29 30 31 32 33 34 35 36 37 38 39 40 41 42 43 44 45 46 47 48 49 50

270
ASUS45 KCYS 130210
RWRWY

WYOMING REGIONAL WEATHER ROUNDUP
NATIONAL WEATHER SERVICE CHEYENNE WY
700 PM MST TUE DEC 12 2017

NOTE:  "FAIR" INDICATES FEW OR NO CLOUDS BELOW 12,000 FEET
WITH NO SIGNIFICANT WEATHER AND/OR OBSTRUCTIONS TO VISIBILITY.

WYZ001-130300-
YELLOWSTONE NATIONAL PARK

CITY           SKY/WX    TMP DP  RH WIND       PRES   REMARKS
LK YELLOWSTONE   N/A     16  13  88 CALM      30.39R
W YELLOWSTONE  NOT AVBL

$$
WYZ002>013-054>058-071-098>099-130300-
NORTHERN WYOMING

CITY           SKY/WX    TMP DP  RH WIND       PRES   REMARKS
JACKSON        FAIR      20  14  77 MISG      30.38R
CODY           FAIR      41   5  22 CALM      30.16S
GREYBULL       FAIR      29  16  58 W6        30.13R WCI  23
WORLAND        FAIR      28  22  78 S5        30.12S WCI  23
SHERIDAN       FAIR      51   8  17 N16       30.06R
BUFFALO        FAIR      54   2  12 N8G21     30.08R
GILLETTE       FAIR      50  10  20 NW21      30.02F
HULETT         FAIR      50  16  25 W13       30.00R
NEWCASTLE      FAIR      32  18  55 CALM      30.00S

$$
WYZ014>020-022>026-101>103-130300-
CENTRAL WYOMING

CITY           SKY/WX    TMP DP  RH WIND       PRES   REMARKS
BIG PINEY      FAIR      29  -9  19 VRB3      30.33S
PINEDALE       FAIR      27   1  33 NW7       30.34S WCI  19
DUBOIS         FAIR      39  -2  17 NW18G25   30.26R WCI  30
LANDER         FAIR      33  23  66 N3        30.16S
RIVERTON       FAIR      26  16  65 E5        30.18R WCI  20
CASPER         FAIR      41  18  39 SW22      30.12F
DOUGLAS        FAIR      36  21  54 NW10      30.09F WCI  28

$$
WYZ021-027>030-104>119-130300-
SOUTHERN WYOMING

CITY           SKY/WX    TMP DP  RH WIND       PRES   REMARKS
EVANSTON       FAIR      35  11  36 SW12      30.38S WCI  27
FORT BRIDGER   FAIR      40   8  26 W13       30.38F WCI  32
ROCK SPRINGS   FAIR      39  -4  16 W17       30.30S WCI  30
DIXON          FAIR      22  15  72 E3        30.36S
RAWLINS        FAIR      40  15  36 W20G28    30.25F WCI  30
SARATOGA       FAIR      30  21  69 SE7       30.29F WCI  23
LARAMIE        FAIR      29   7  39 NE7       30.23S WCI  22
CHEYENNE       FAIR      49   9  19 W17G32    30.15F
TORRINGTON     FAIR      47  15  27 NW14      30.04F
PINE BLUFFS    FAIR      39   9  28 MISG      30.11S

$$




USA.gov is the U.S. government's official web portal to all federal, state and local government web resources and services.